Location: *
(51.2167°N, 10.0667°E)
Time: 07:07:28
(UTC+00:00)

CZ-4B R/B - Pass Details

Date: 12 December 2019
Orbit: 392 x 469 km, 97.6° (Epoch: 19 January)

Event Time Altitude Azimuth Distance (km) Brightness Sun altitude
Rises 16:21:59 0° 6° (N) 2,527 4.9 -10.2°
Reaches altitude 10° 16:24:10 10° 357° (N) 1,642 4.0 -10.5°
Maximum altitude 16:27:22 33° 292° (WNW) 806 3.1 -11.0°
Drops below altitude 10° 16:30:31 10° 227° (SW) 1,610 5.4 -11.4°
Sets 16:32:39 0° 217° (SW) 2,470 6.3 -11.8°
